When you browse on this site, cookies collect data to enhance your experience and personalize the content and advertising you see.
Visit our Privacy Policy to learn more. By continuing to use the site, you agree to this use of cookies and data.
  • In Austria
  • List of Countries
  • For 7 days
  • Water Temperature
  • Weather Map
  • News
  • Weather Widgets
  • user-avatar
    Login

    Hourly Weather Mozharovka

    Today, 25 May, Monday

    Time Temperature Precipitation Wind Pressure Humidity
    00:00 +25°C° 0 mm 4 mps 745 mmHg 48%
    01:00 +23°C° 0 mm 4 mps 745 mmHg 49%
    02:00 +23°C° 0 mm 4 mps 745 mmHg 50%
    03:00 +22°C° 0 mm 4 mps 745 mmHg 51%
    04:00 +22°C° 0 mm 4 mps 745 mmHg 50%
    05:00 +23°C° 0 mm 4 mps 745 mmHg 49%
    06:00 +26°C° 0 mm 5 mps 745 mmHg 48%
    07:00 +27°C° 0 mm 5 mps 745 mmHg 46%
    08:00 +29°C° 0 mm 6 mps 746 mmHg 41%
    09:00 +32°C° 0 mm 7 mps 746 mmHg 37%
    10:00 +35°C° 0 mm 7 mps 746 mmHg 32%
    11:00 +34°C° 0 mm 7 mps 747 mmHg 35%
    12:00 +34°C° 0 mm 8 mps 747 mmHg 38%
    13:00 +34°C° 0 mm 8 mps 747 mmHg 42%
    14:00 +32°C° 0 mm 8 mps 747 mmHg 46%
    15:00 +31°C° 0 mm 8 mps 747 mmHg 51%
    16:00 +29°C° 0 mm 8 mps 748 mmHg 55%
    17:00 +27°C° 0 mm 7 mps 748 mmHg 57%
    18:00 +26°C° 0 mm 6 mps 748 mmHg 59%
    19:00 +23°C° 0 mm 5 mps 748 mmHg 60%
    20:00 +22°C° 0 mm 5 mps 749 mmHg 60%
    21:00 +20°C° 0 mm 6 mps 749 mmHg 59%
    22:00 +19°C° 0 mm 6 mps 750 mmHg 58%
    23:00 +17°C° 0 mm 6 mps 750 mmHg 58%

    Tomorrow, 26 May, Tuesday

    Time Temperature Precipitation Wind Pressure Humidity
    00:00 +17°C° 0 mm 6 mps 749 mmHg 57%
    01:00 +16°C° 0 mm 6 mps 749 mmHg 57%
    02:00 +15°C° 0 mm 6 mps 750 mmHg 59%
    03:00 +15°C° 0 mm 6 mps 750 mmHg 61%
    04:00 +14°C° 0 mm 6 mps 750 mmHg 63%
    05:00 +15°C° 0 mm 7 mps 750 mmHg 61%
    06:00 +15°C° 0 mm 7 mps 750 mmHg 60%
    07:00 +15°C° 0 mm 8 mps 750 mmHg 58%
    08:00 +17°C° 0 mm 7 mps 750 mmHg 55%
    09:00 +20°C° 0 mm 7 mps 750 mmHg 51%
    10:00 +21°C° 0 mm 7 mps 750 mmHg 48%
    11:00 +23°C° 0 mm 7 mps 750 mmHg 46%
    12:00 +24°C° 0 mm 7 mps 750 mmHg 44%
    13:00 +27°C° 0 mm 6 mps 750 mmHg 42%
    14:00 +27°C° 0 mm 6 mps 750 mmHg 42%
    15:00 +28°C° 0 mm 6 mps 750 mmHg 42%
    16:00 +28°C° 0 mm 6 mps 749 mmHg 42%
    17:00 +27°C° 0 mm 6 mps 749 mmHg 46%
    18:00 +26°C° 0 mm 6 mps 749 mmHg 50%
    19:00 +23°C° 0 mm 6 mps 749 mmHg 54%
    20:00 +22°C° 0 mm 5 mps 749 mmHg 55%
    21:00 +21°C° 0 mm 5 mps 750 mmHg 56%
    22:00 +19°C° 0 mm 5 mps 750 mmHg 58%
    23:00 +19°C° 0 mm 5 mps 749 mmHg 59%

    Day after tomorrow, 27 May, Wednesday

    Time Temperature Precipitation Wind Pressure Humidity
    00:00 +17°C° 0 mm 5 mps 749 mmHg 60%
    01:00 +17°C° 0 mm 5 mps 749 mmHg 62%
    02:00 +16°C° 0 mm 5 mps 749 mmHg 64%
    03:00 +17°C° 0 mm 4 mps 749 mmHg 67%
    04:00 +15°C° 0 mm 4 mps 749 mmHg 69%
    05:00 +16°C° 0 mm 5 mps 749 mmHg 67%
    06:00 +19°C° 0 mm 6 mps 749 mmHg 65%
    07:00 +20°C° 0 mm 7 mps 749 mmHg 63%
    08:00 +21°C° 0 mm 7 mps 749 mmHg 59%
    09:00 +23°C° 0 mm 7 mps 749 mmHg 54%
    10:00 +26°C° 0 mm 7 mps 748 mmHg 50%
    11:00 +27°C° 0 mm 7 mps 748 mmHg 47%
    12:00 +29°C° 0 mm 7 mps 748 mmHg 44%
    13:00 +30°C° 0 mm 7 mps 747 mmHg 40%
    14:00 +32°C° 0 mm 6 mps 747 mmHg 40%
    15:00 +32°C° 0 mm 6 mps 747 mmHg 39%
    16:00 +33°C° 0 mm 6 mps 747 mmHg 39%
    17:00 +30°C° 0 mm 6 mps 746 mmHg 43%
    18:00 +29°C° 0 mm 5 mps 746 mmHg 48%
    19:00 +28°C° 0 mm 5 mps 746 mmHg 52%
    20:00 +27°C° 0 mm 5 mps 746 mmHg 53%
    21:00 +24°C° 0 mm 6 mps 745 mmHg 54%
    22:00 +23°C° 0 mm 6 mps 745 mmHg 55%
    23:00 +22°C° 0 mm 6 mps 745 mmHg 56%

    28 May, Thursday

    Time Temperature Precipitation Wind Pressure Humidity
    00:00 +21°C° 0 mm 5 mps 745 mmHg 57%
    01:00 +21°C° 0 mm 5 mps 745 mmHg 59%
    02:00 +20°C° 0.1 mm 3 mps 744 mmHg 62%
    03:00 +19°C° 0.1 mm 2 mps 744 mmHg 65%
    04:00 +19°C° 0.1 mm 1 mps 744 mmHg 68%
    05:00 +20°C° 0.3 mm 2 mps 744 mmHg 65%
    06:00 +21°C° 0.3 mm 2 mps 744 mmHg 62%
    07:00 +23°C° 0.3 mm 2 mps 744 mmHg 58%
    08:00 +25°C° 0.2 mm 2 mps 744 mmHg 54%
    09:00 +26°C° 0.2 mm 2 mps 744 mmHg 49%
    10:00 +28°C° 0.2 mm 2 mps 744 mmHg 44%
    11:00 +30°C° 0 mm 2 mps 743 mmHg 40%
    12:00 +31°C° 0 mm 2 mps 743 mmHg 37%
    13:00 +34°C° 0 mm 2 mps 743 mmHg 34%
    14:00 +35°C° 0 mm 3 mps 743 mmHg 32%
    15:00 +35°C° 0 mm 3 mps 743 mmHg 30%
    16:00 +36°C° 0 mm 3 mps 742 mmHg 28%
    17:00 +34°C° 0 mm 3 mps 742 mmHg 35%
    18:00 +31°C° 0 mm 3 mps 742 mmHg 43%
    19:00 +30°C° 0 mm 3 mps 742 mmHg 50%
    20:00 +28°C° 0.2 mm 3 mps 742 mmHg 55%
    21:00 +26°C° 0.2 mm 2 mps 742 mmHg 59%
    22:00 +24°C° 0.2 mm 2 mps 742 mmHg 64%
    23:00 +23°C° 0 mm 2 mps 742 mmHg 65%

    29 May, Friday

    Time Temperature Precipitation Wind Pressure Humidity
    00:00 +23°C° 0 mm 2 mps 742 mmHg 66%
    01:00 +21°C° 0 mm 2 mps 742 mmHg 67%
    02:00 +21°C° 0.6 mm 2 mps 742 mmHg 71%
    03:00 +21°C° 0.6 mm 1 mps 742 mmHg 75%
    04:00 +21°C° 0.6 mm 1 mps 742 mmHg 78%
    05:00 +22°C° 0.5 mm 1 mps 742 mmHg 75%
    06:00 +21°C° 0.5 mm 2 mps 742 mmHg 72%
    07:00 +23°C° 0.5 mm 2 mps 743 mmHg 70%
    08:00 +25°C° 0 mm 2 mps 743 mmHg 62%
    09:00 +27°C° 0 mm 2 mps 743 mmHg 55%
    10:00 +29°C° 0 mm 2 mps 742 mmHg 48%
    11:00 +30°C° 0 mm 2 mps 742 mmHg 44%
    12:00 +31°C° 0 mm 2 mps 742 mmHg 40%
    13:00 +32°C° 0 mm 2 mps 742 mmHg 36%
    14:00 +33°C° 0 mm 1 mps 742 mmHg 34%
    15:00 +33°C° 0 mm 1 mps 742 mmHg 33%
    16:00 +33°C° 0 mm 1 mps 742 mmHg 31%
    17:00 +32°C° 0 mm 2 mps 742 mmHg 35%
    18:00 +31°C° 0 mm 2 mps 742 mmHg 40%
    19:00 +30°C° 0 mm 3 mps 742 mmHg 44%
    20:00 +29°C° 0.1 mm 4 mps 742 mmHg 49%
    21:00 +27°C° 0.1 mm 6 mps 742 mmHg 54%
    22:00 +24°C° 0.1 mm 8 mps 743 mmHg 59%
    23:00 +23°C° 0.1 mm 7 mps 743 mmHg 63%

    30 May, Saturday

    Time Temperature Precipitation Wind Pressure Humidity
    00:00 +22°C° 0.1 mm 7 mps 743 mmHg 66%
    01:00 +21°C° 0.1 mm 6 mps 743 mmHg 69%
    02:00 +21°C° 0.2 mm 6 mps 744 mmHg 73%
    03:00 +20°C° 0.2 mm 5 mps 744 mmHg 77%
    04:00 +20°C° 0.2 mm 5 mps 744 mmHg 81%
    05:00 +21°C° 0 mm 6 mps 744 mmHg 77%
    06:00 +21°C° 0 mm 6 mps 744 mmHg 73%
    07:00 +22°C° 0 mm 7 mps 745 mmHg 70%
    08:00 +23°C° 0 mm 7 mps 745 mmHg 64%
    09:00 +26°C° 0 mm 7 mps 745 mmHg 58%
    10:00 +27°C° 0 mm 7 mps 745 mmHg 53%
    11:00 +28°C° 0 mm 7 mps 745 mmHg 49%
    12:00 +28°C° 0 mm 7 mps 745 mmHg 46%
    13:00 +29°C° 0 mm 7 mps 746 mmHg 43%
    14:00 +29°C° 0 mm 7 mps 746 mmHg 42%
    15:00 +29°C° 0 mm 7 mps 746 mmHg 41%
    16:00 +29°C° 0 mm 6 mps 745 mmHg 41%
    17:00 +28°C° 0 mm 6 mps 746 mmHg 45%
    18:00 +27°C° 0 mm 6 mps 746 mmHg 48%
    19:00 +26°C° 0 mm 5 mps 746 mmHg 52%
    20:00 +25°C° 0 mm 5 mps 746 mmHg 53%
    21:00 +23°C° 0 mm 6 mps 746 mmHg 53%
    22:00 +21°C° 0 mm 6 mps 746 mmHg 53%
    23:00 +21°C° 0 mm 6 mps 746 mmHg 54%
    Show more